{"data":{"norad_id":60103,"epoch":"2026-05-25T02:30:00.624096Z","epoch_age_seconds":56195,"freshness":"FRESH","line1":"1 60103U 24117N   26145.10417389  .00001332  00000+0  57081-4 0  9999","line2":"2 60103  53.1621  42.3442 0001337  97.0141 263.1012 15.30196829108586","mean_motion":15.30196829,"eccentricity":0.0001337,"inclination_deg":53.1621,"raan_deg":42.3442,"arg_perigee_deg":97.0141,"mean_anomaly_deg":263.1012,"bstar":5.7081e-5,"rev_number":10858,"period_min":94.105540719298,"perigee_km":474.30824303254,"apogee_km":476.14083190766,"semimajor_km":6853.3615374701,"source":"CELESTRAK","updated_at":"2026-05-25T13:38:19.162511Z"}}